Regional Weather Roundup
Issued by NWS

Home | Current Version | Previous Version | Text Only | Print | Product List | Glossary Off
Versions: 1 2 3 4 5 6 7 8 9 10 11 12 13 14 15 16 17 18 19 20 21 22 23 24 25 26 27 28 29 30 31 32 33 34 35 36 37 38 39 40 41 42 43 44 45 46 47 48 49 50

000
ASUS43 KOAX 021702
RWRNE
WEATHER ROUNDUP FOR NEBRASKA
NATIONAL WEATHER SERVICE OMAHA NE
1200 PM CDT TUE JUN 02 2015

NOTES: SATELLITE DATA IS BEING USED TO AUGMENT CLOUD COVER ABOVE
       12000 FEET.
       "FAIR" INDICATES FEW OR NO CLOUDS BELOW 12,000 FEET WITH NO
       SIGNIFICANT WEATHER AND/OR OBSTRUCTIONS TO VISIBILITY.

  * THESE STATIONS DO NOT REPORT WEATHER SUCH AS RAIN...SNOW OR FOG.

NEZ001>004-019>022-054>056-021800-
NEBRASKA PANHANDLE

CITY           SKY/WX    TMP DP  RH WIND       PRES   REMARKS
SCOTTSBLUFF    SUNNY     74  59  59 S6        29.89F
ALLIANCE       MOSUNNY   73  61  65 SW13      29.88F
CHADRON        PTSUNNY   76  61  59 E7        29.83F
KIMBALL          N/A    N/A N/A N/A MISG        N/A
SIDNEY         SUNNY     71  60  68 SW12      29.92F
$$

NEZ057>060-069>072-079>082-021800-
SOUTHWEST NEBRASKA

CITY           SKY/WX    TMP DP  RH WIND       PRES   REMARKS
NORTH PLATTE   SUNNY     78  62  57 SE6       29.89F
IMPERIAL       SUNNY     76  62  62 S7        29.90S
LEXINGTON      MOSUNNY   69  65  88 S7        29.92S
MCCOOK         SUNNY     79  66  64 S13       29.88S
$$

NEZ005>010-023>029-035>040-094-021800-
NORTH CENTRAL NEBRASKA

CITY           SKY/WX    TMP DP  RH WIND       PRES   REMARKS
AINSWORTH      SUNNY     78  59  51 SW15G23   29.86F
BROKEN BOW     MOSUNNY   72  63  73 SE14      29.90F
O`NEILL        MOSUNNY   71  62  72 S16G24    29.90S
ORD            CLOUDY    66  60  81 S12       29.92R
$$

NEZ041-046>049-061>064-073>077-083>087-021800-
SOUTH CENTRAL NEBRASKA

CITY           SKY/WX    TMP DP  RH WIND       PRES   REMARKS
GRAND ISLAND   CLOUDY    64  58  80 S15       29.94F
HASTINGS       CLOUDY    65  60  84 S10       29.94F
KEARNEY *      CLOUDY    64  61  88 S12       29.92F
$$

NEZ011>018-030>034-042>045-021800-
NORTHEAST NEBRASKA

CITY           SKY/WX    TMP DP  RH WIND       PRES   REMARKS
NORFOLK        PTSUNNY   70  59  68 S15G25    29.94F
COLUMBUS *     CLOUDY    66  55  68 S14       29.98S
FREMONT        CLOUDY    69  56  65 SE13G21   29.99S
TEKAMAH        PTSUNNY   72  56  57 SE20      29.98F
$$

NEZ050>053-065>068-078-088>093-021800-
SOUTHEAST NEBRASKA

CITY           SKY/WX    TMP DP  RH WIND       PRES   REMARKS
LINCOLN        CLOUDY    67  58  72 SE14      29.99R
OMAHA EPPLEY   PTSUNNY   69  56  62 SE14G23   29.99F
FALLS CITY     PTSUNNY   70  59  68 SE15G23   30.00F
PLATTSMOUTH    MOSUNNY   68  55  63 SE17      30.00F
$$

NEZ044-045-051>053-067-021800-
OMAHA AREA

CITY           SKY/WX    TMP DP  RH WIND       PRES   REMARKS
OMAHA EPPLEY   PTSUNNY   69  56  62 SE14G23   29.99F
FREMONT        CLOUDY    69  56  65 SE13G21   29.99S
OFFUTT AFB     MOSUNNY   71  58  63 SE14      29.98F
PLATTSMOUTH    MOSUNNY   68  55  63 SE17      30.00F
$$



USA.gov is the U.S. government's official web portal to all federal, state and local government web resources and services.